Hillsboro, OR

1:35 AM PST on February 20, 2017 (GMT -0800)
Portland-Hillsboro

Weather History for KHIO - May, 2013

Change the Weather History Date:

Saturday, May 25, 2013

  Actual Average Record
Temperature  
Mean Temperature 56 °F 58 °F  
Max Temperature 65 °F 69 °F 93 °F (1936)
Min Temperature 47 °F 46 °F 31 °F (1935)
Degree Days  
Heating Degree Days 9 8  
Month to date heating degree days 198 244  
Since 1 July heating degree days 4585 4806  
Cooling Degree Days 0 0  
Month to date cooling degree days 6 0  
Year to date cooling degree days 6 0  
Growing Degree Days 5 (Base 50)    
Moisture  
Dew Point 46 °F    
Average Humidity 73    
Maximum Humidity 93    
Minimum Humidity 52    
Precipitation  
Precipitation 0.17 in 0.07 in 0.53 in (1968)
Month to date precipitation 2.98 1.91  
Year to date precipitation 10.46 19.12  
Snow  
Snow 0.00 in - - ()
Month to date snowfall 0.0  
Since 1 July snowfall 0.0  
Snow Depth -    
Sea Level Pressure  
Sea Level Pressure 30.02 in    
Wind  
Wind Speed 4 mph (WNW)    
Max Wind Speed 14 mph    
Max Gust Speed 17 mph    
Visibility 10 miles    
Events      
T = Trace of Precipitation, MM = Missing Value Source: NWS Daily Summary

Daily Weather History Graph

Daily Weather History Graph

Search for Another Location

Airport or City:

Trip Planner

Search our weather history database for the weather conditions in past years. The results will help you decide how hot, cold, wet, or windy it might be!

Date:

Astronomy

May. 25, 2013 Rise Set
Actual Time 5:30 AM PDT 8:47 PM PDT
Civil Twilight 4:54 AM PDT 9:23 PM PDT
Nautical Twilight 4:07 AM PDT 10:10 PM PDT
Astronomical Twilight 3:09 AM PDT 11:09 PM PDT
Moon 9:40 PM PDT (5/25) 6:04 AM PDT (5/25)
Length of Visible Light 16h 28m
Length of Day
15h 16m
Waxing Gibbous, 99% of the Moon is Illuminated
May 25
Waxing Gibbous
May 31
Last Quarter
Jun 8
New
Jun 16
First Quarter
Jun 23
Full

Hourly Weather History & Observations

Time (PDT) Temp. Dew Point Humidity Pressure Visibility Wind Dir Wind Speed Gust Speed Precip Events Conditions
12:53 AM 46.9 °F 45.0 °F 93% 30.08 in 10.0 mi Calm Calm - N/A   Overcast
1:53 AM 46.9 °F 45.0 °F 93% 30.08 in 10.0 mi WNW 3.5 mph - N/A   Overcast
2:13 AM 46.9 °F 45.0 °F 93% 30.07 in 10.0 mi Calm Calm - N/A   Overcast
2:23 AM 46.9 °F 45.0 °F 93% 30.07 in 10.0 mi Calm Calm - N/A   Overcast
2:53 AM 46.9 °F 45.0 °F 93% 30.07 in 10.0 mi NNW 3.5 mph - N/A   Overcast
3:53 AM 46.9 °F 45.0 °F 93% 30.07 in 10.0 mi Calm Calm - N/A   Overcast
4:53 AM 46.9 °F 45.0 °F 93% 30.06 in 10.0 mi Calm Calm - N/A   Overcast
5:53 AM 46.9 °F 45.0 °F 93% 30.06 in 10.0 mi NW 3.5 mph - N/A   Overcast
6:53 AM 46.9 °F 45.0 °F 93% 30.06 in 10.0 mi Calm Calm - N/A   Overcast
7:53 AM 50.0 °F 46.0 °F 86% 30.06 in 10.0 mi Calm Calm - N/A   Overcast
8:53 AM 52.0 °F 46.0 °F 80% 30.06 in 10.0 mi Calm Calm - N/A   Overcast
9:53 AM 53.1 °F 45.0 °F 74% 30.05 in 10.0 mi WNW 3.5 mph - N/A   Overcast
10:53 AM 55.9 °F 45.0 °F 67% 30.04 in 10.0 mi SW 5.8 mph - N/A   Overcast
11:00 AM 55.9 °F 45.0 °F 67% 30.04 in 10.0 mi South 5.8 mph - N/A   Overcast
11:53 AM 59.0 °F 45.0 °F 60% 30.04 in 10.0 mi South 9.2 mph - N/A   Overcast
12:53 PM 60.1 °F 44.1 °F 55% 30.03 in 10.0 mi SW 5.8 mph - N/A   Mostly Cloudy
1:53 PM 62.1 °F 45.0 °F 53% 30.02 in 10.0 mi North - - N/A   Overcast
2:53 PM 62.1 °F 44.1 °F 52% 30.01 in 10.0 mi Variable 3.5 mph - N/A   Overcast
3:53 PM 64.0 °F 46.0 °F 52% 30.00 in 10.0 mi Calm Calm - N/A   Mostly Cloudy
4:53 PM 64.0 °F 46.0 °F 52% 29.98 in 10.0 mi NW 3.5 mph - N/A   Overcast
5:53 PM 63.0 °F 46.9 °F 56% 29.97 in 10.0 mi North 4.6 mph - N/A   Partly Cloudy
6:53 PM 62.1 °F 48.9 °F 62% 29.96 in 10.0 mi NNW 4.6 mph - N/A   Partly Cloudy
7:53 PM 60.1 °F 50.0 °F 69% 29.95 in 10.0 mi NW 4.6 mph - N/A   Clear
8:53 PM 57.0 °F 51.1 °F 81% 29.94 in 10.0 mi WNW 6.9 mph - N/A   Scattered Clouds
9:53 PM 55.0 °F 48.9 °F 80% 29.95 in 10.0 mi WNW 5.8 mph - N/A   Scattered Clouds
10:53 PM 54.0 °F 50.0 °F 86% 29.94 in 10.0 mi WNW 5.8 mph - N/A   Mostly Cloudy
11:53 PM 54.0 °F 50.0 °F 86% 29.96 in 10.0 mi WSW 9.2 mph - N/A   Overcast